Content
SEND FEEDBACK

Daily
Averages
Monthly
Summary
United Kingdom

NEWTOWNNARDS, NORTHERN IRELAND


Home > Europe > United Kingdom > Northern Ireland
Elevation: 112 feet     Latitude: 54 40N     Longitude: 005 35W

WEATHER
 
SELECT A DAY
Number of Records: 191,794;   Date Range: 7/1/96 - 9/20/14
 
SHARE

PRINT THIS DATA

[ ← Previous Day ]
WEATHER ALMANAC - MAY 3, 2013
[ Next Day → ]
[ °C ]   °F
Weather ElementAverageHighLow
Temperature53.2 °F55.4 °F (1:50 pm)50 °F (6:50 am)
Dewpoint47 °F48.2 °F (12:20 pm)44.6 °F (6:50 am)
Humidity79.9 %88 % (6:20 pm)72 % (3:50 pm)
Barometer29.86 in29.95 in (6:50 am)29.77 in (4:50 pm)
Wind Speed18.4 mph25.3 mph (3:20 pm)
Wind Gust39.1 mph (3:20 pm)
Weather ElementAverage
Visibility5.7 mi
Wind DirectionSSW (216.2 °)

Weather ElementTotal
Precipitation---
Heating Degree Days12.3 (Base 65)
Growing Degree Days2.7 (Base 50)
Averaged from 29 records on May 3, 2013
WEATHER CONDITIONS BREAKOUT
WIND DIRECTION BREAKOUT
WEATHER BY HOUR - MAY 3, 2013
[ °C ]   °F
Local TimeTemperatureDewpointHumidityBarometerVisibilityWind DirectionWind SpeedGust SpeedPrecipitationEventsConditions
6:50 AM50.0 °F44.6 °F82 %29.95 in6.2 miSSW (210°)13.8 mphMostly Cloudy
7:20 AM51.8 °F44.6 °F76 %29.95 in6.2 miSSW (210°)15.0 mphMostly Cloudy
7:50 AM50.0 °F46.4 °F87 %29.95 in3.7 miSW (220°)16.1 mphRainLight Rain Showers
8:20 AM50.0 °F46.4 °F87 %29.95 in2.5 miSW (220°)13.8 mphRainLight Rain Showers
8:50 AM51.8 °F46.4 °F82 %29.95 in5.0 miSW (220°)13.8 mphMostly Cloudy
9:20 AM51.8 °F46.4 °F82 %29.95 in5.0 miSW (220°)16.1 mphMostly Cloudy
9:50 AM53.6 °F46.4 °F77 %29.92 in5.0 miSW (220°)17.3 mphMostly Cloudy
10:20 AM53.6 °F46.4 °F77 %29.92 in5.0 miSSW (210°)21.9 mphRainLight Rain Showers
10:50 AM53.6 °F46.4 °F77 %29.92 in6.2 miSW (220°)16.1 mphRainLight Rain
11:20 AM53.6 °F46.4 °F77 %29.92 in6.2 miSSW (200°)17.3 mphRainLight Rain
11:50 AM53.6 °F46.4 °F77 %29.89 in6.2 miSSW (210°)19.6 mphRainLight Rain
12:20 PM53.6 °F48.2 °F82 %29.89 in6.2 miSSW (200°)17.3 mphRainLight Rain
12:50 PM53.6 °F48.2 °F82 %29.89 in6.2 miSSW (210°)19.6 mphRainLight Rain
1:20 PM53.6 °F48.2 °F82 %29.86 in6.2 miSSW (210°)23.0 mph35.7 mphRainLight Rain
1:50 PM55.4 °F48.2 °F77 %29.86 in6.2 miSSW (210°)20.7 mphMostly Cloudy
2:20 PM55.4 °F48.2 °F77 %29.83 in6.2 miSSW (210°)20.7 mph34.5 mphMostly Cloudy
2:50 PM55.4 °F48.2 °F77 %29.83 in6.2 miSSW (210°)24.2 mphRainLight Rain
3:20 PM55.4 °F48.2 °F77 %29.83 in6.2 miSW (220°)25.3 mph39.1 mphMostly Cloudy
3:50 PM55.4 °F46.4 °F72 %29.80 in6.2 miSW (220°)24.2 mph38.0 mphRainLight Rain
4:20 PM55.4 °F48.2 °F77 %29.80 in6.2 miSSW (210°)23.0 mphRainLight Rain
4:50 PM55.4 °F46.4 °F72 %29.77 in6.2 miSSW (210°)24.2 mph35.7 mphMostly Cloudy
5:20 PM55.4 °F46.4 °F72 %29.77 in6.2 miSW (220°)24.2 mphMostly Cloudy
5:50 PM55.4 °F46.4 °F72 %29.77 in6.2 miSW (220°)24.2 mphMostly Cloudy
6:20 PM51.8 °F48.2 °F88 %29.77 in3.1 miWSW (240°)18.4 mphRainRain
6:50 PM51.8 °F48.2 °F88 %29.77 in6.2 miSW (220°)13.8 mphRainLight Rain
7:20 PM51.8 °F48.2 °F88 %29.77 in6.2 miSW (220°)12.7 mphRainLight Rain
7:50 PM51.8 °F46.4 °F82 %29.77 in6.2 miSW (220°)15.0 mphRainLight Rain
8:20 PM51.8 °F48.2 °F88 %29.77 in6.2 miSW (220°)10.4 mphRainLight Rain
8:50 PM50.0 °F44.6 °F82 %29.80 in6.2 miWSW (240°)11.5 mphRainLight Rain
Hourly data recorded from EGAC, located miles away from Newtownnards, Northern Ireland







STORIES FROM OUR PARTNERS